PDT,Max TemperatureF,Mean TemperatureF,Min TemperatureF,Max Dew PointF,MeanDew PointF,Min DewpointF,Max Humidity, Mean Humidity, Min Humidity, Max Sea Level PressureIn, Mean Sea Level PressureIn, Min Sea Level PressureIn, Max VisibilityMiles, Mean VisibilityMiles, Min VisibilityMiles, Max Wind SpeedMPH, Mean Wind SpeedMPH, Max Gust SpeedMPH,PrecipitationIn, CloudCover, Events, WindDirDegrees
2011-10-1,57,54,51,50,50,50,94,88,77,29.99,29.92,29.86,20,9,2,9,2,,0.00,8,Rain,206
2011-10-2,62,56,50,52,49,48,94,80,59,29.99,29.94,29.86,20,9,2,14,4,,0.00,6,Fog-Rain,53
2011-10-3,60,56,53,54,52,50,94,89,68,29.83,29.81,29.77,20,13,7,8,6,,0.00,8,Rain,61
2011-10-4,60,55,50,52,48,43,100,79,52,29.76,29.63,29.47,20,10,0,10,4,,0.00,6,Fog-Rain,60
2011-10-5,53,52,50,52,49,45,94,89,76,29.75,29.56,29.44,15,11,3,10,4,,0.00,8,Rain,109
2011-10-6,57,54,50,50,50,50,100,88,77,30.04,29.93,29.76,20,7,0,9,2,,0.00,8,Fog,213
2011-10-7,57,54,50,50,49,48,94,85,77,30.24,30.13,30.04,20,13,6,10,6,,0.00,7,Rain,213
2011-10-8,62,54,46,52,48,45,100,84,52,30.26,30.17,30.06,20,3,0,8,2,,0.00,5,Fog-Rain,37
2011-10-9,60,55,50,54,48,45,100,80,55,30.07,30.00,29.84,20,14,10,10,5,,0.00,5,,244
2011-10-10,55,52,50,52,49,46,100,92,87,29.83,29.61,29.49,15,10,2,12,5,,0.00,8,Rain,53
2011-10-11,59,56,53,54,51,46,94,86,72,30.02,29.73,29.52,15,13,6,20,12,24,0.00,7,Rain,193
2011-10-12,59,52,44,50,47,43,94,83,63,30.26,30.17,30.04,20,14,6,17,8,23,0.00,6,Rain,207
2011-10-13,57,50,42,46,44,41,100,85,55,30.27,30.21,30.08,15,3,0,7,4,,0.00,5,Fog,21
2011-10-14,59,50,42,46,42,41,100,79,55,30.08,30.04,30.01,15,10,10,7,3,,0.00,5,,348
2011-10-15,59,48,37,46,41,36,100,86,59,30.16,30.10,30.05,20,3,0,5,1,,0.00,0,Fog,12
2011-10-16,57,45,33,45,39,32,100,85,55,30.34,30.19,30.08,20,6,1,9,2,,0.00,1,Fog,258
2011-10-17,59,49,39,46,43,37,100,82,59,30.47,30.41,30.35,20,9,1,6,2,,0.00,5,,23
2011-10-18,66,54,42,52,45,41,93,77,52,30.36,30.17,29.96,15,11,10,10,5,,0.00,2,,12
2011-10-19,62,53,44,52,47,43,93,84,68,30.05,29.98,29.91,20,13,6,13,4,20,0.00,7,Fog-Rain,217
2011-10-20,57,54,51,52,50,46,94,88,67,30.13,30.09,30.05,15,9,2,12,7,,0.00,7,Rain,215
2011-10-21,57,54,50,52,49,46,100,89,82,30.21,30.13,30.09,15,9,2,22,7,29,0.00,8,Rain,137
2011-10-22,55,52,50,52,50,48,100,92,82,30.21,30.15,30.11,20,11,8,13,3,,0.00,7,Rain,19
2011-10-23,59,49,39,48,43,39,100,84,51,30.22,30.18,30.13,15,8,1,8,3,,0.00,4,Fog,319
2011-10-24,55,48,39,45,41,36,93,82,51,30.39,30.27,30.14,20,12,10,12,4,,0.00,5,Rain,228
2011-10-25,55,47,37,43,40,36,93,82,54,30.50,30.45,30.40,20,11,10,5,2,,0.00,3,Fog,354
2011-10-26,48,42,35,45,39,34,100,90,81,30.42,30.29,30.20,20,14,7,9,3,,0.00,6,Rain,12
2011-10-27,51,44,37,45,39,36,100,86,58,30.36,30.28,30.11,15,5,0,9,3,,0.00,4,Fog,15
2011-10-28,48,45,42,46,41,37,93,84,76,30.10,29.96,29.85,20,12,2,12,5,,0.00,7,Rain,17
2011-10-29,53,45,37,45,41,36,100,85,67,30.33,30.24,30.08,15,14,10,8,3,,0.00,5,Fog,342
2011-10-30,51,48,44,50,45,41,100,91,76,30.19,30.08,30.03,20,10,1,13,5,,0.00,7,Rain,53
2011-10-31,53,46,37,45,40,36,93,80,58,30.46,30.32,30.16,20,16,10,17,8,22,0.00,4,,214